User: anonymous   Login
Location: Montr�al
(45.5000°N, 73.5830°W)
Time: 08:22:09
(UTC-04:00)
Language:

Cosmos 2369 - Orbit

View from above orbital plane
View from above orbital plane
View from above satellite
View from above satellite

Ground track
Ground track

The orbit data is extracted from the following two-line orbital elements,

1 26069U 00006A   15183.68366045  .00000150  00000-0  10497-3 0  9995
2 26069 070.9972 057.8994 0012587 240.9198 149.7634 14.13312458795037
Epoch (UTC): 02 July 2015 16:24:28
Eccentricity: 0.0012587
inclination: 70.9972°
perigee height: 839 km
apogee height: 857 km
right ascension of ascending node: 57.8994°
argument of perigee: 240.9198°
revolutions per day: 14.13312458
mean anomaly at epoch: 149.7634°
orbit number at epoch: 79503

The dashed part of the orbit path shows where the satellite is in the earth's shadow,  

DLR